Preview of NWS' New Version of Forecast
This preview is not operational and should not be used for support decisions.

Regional Weather Roundup (RWR)

Issued by National Weather Service (NWS)

                            
000
ASUS44 KJAN 182010
RWRMS 

MISSISSIPPI HOURLY WEATHER ROUNDUP
NATIONAL WEATHER SERVICE JACKSON MS
200 PM CST FRI JAN 18 2019

NOTE: "FAIR: INDICATES FEW OR NO CLOUDS BELOW 12,000 FEET WITH NO
SIGNIFICANT WEATHER AND/OR OBSTRUCTIONS TO VISIBILITY.

MSZ001>002-007>008-010>013-018>021-025>028-034>036-182100-
NORTHWEST MISSISSIPPI
  
CITY           SKY/WX    TMP DP  RH WIND       PRES   REMARKS
BATESVILLE     CLOUDY    55  52  88 SE5       30.00F                  
CLARKSDALE     CLOUDY    57  57 100 SE8       29.98F                  
CLEVELAND      CLOUDY    55  55 100 SE8       29.99F                  
GREENWOOD      FAIR      60  52  74 SE8       29.99F                  
GREENVILLE     CLOUDY    56  54  93 SE8       29.98F                  
OXFORD         CLOUDY    54  50  87 SE6       30.02F                  
TUNICA           N/A     54  50  87 SE6       30.00F                  
WINONA         MOCLDY    58  53  85 CALM      30.00F                  
$$

MSZ003>006-009-014>017-022>024-029>033-037>039-182100-
NORTHEAST MISSISSIPPI
  
CITY           SKY/WX    TMP DP  RH WIND       PRES   REMARKS
ABERDEEN       CLOUDY    55  55 100 SE6       30.05F                  
COLUMBUS AFB   NOT AVBL                                               
CORINTH        CLOUDY    52  48  87 CALM      30.03F                  
GOLDN TRIANGLE CLOUDY    55  52  88 SE8       30.04F                  
STARKVILLE     MOCLDY    55  52  88 SE6       30.04F                  
TUPELO         CLOUDY    57  51  80 SE7       30.02F                  
$$

MSZ040-058-182100-
CENTRAL MISSISSIPPI
  
CITY           SKY/WX    TMP DP  RH WIND       PRES   REMARKS
JACKSON INTL   CLOUDY    62  55  77 SE8       30.02F                  
JACKSON HAWKNS PTSUNNY   61  57  87 S7        30.01F                  
MADISON        CLOUDY    59  59 100 SE5       30.01F                  
MERIDIAN KEY   FAIR      60  52  74 SW6       30.05F                  
MERIDIAN NAS   CLOUDY    62  52  69 SE6       30.04F                  
RAYMOND        MOCLDY    64  59  82 SE7       29.99F                  
VICKSBURG VKS  CLEAR     64  57  77 VRB7      29.99F                  
$$

MSZ059>079-182100-
SOUTH MISSISSIPPI
  
CITY           SKY/WX    TMP DP  RH WIND       PRES   REMARKS
COLUMBIA       RAIN      64  55  72 SW5       30.07F                  
HATTIESBURG    PTSUNNY   64  56  75 SW7       30.04F                  
LAUREL         CLOUDY    60  56  88 CALM      30.04F                  
MCCOMB         FAIR      66  55  67 SE7       30.01F                  
NATCHEZ        FAIR      66  57  72 S9        30.00F                  
PINE BELT      CLOUDY    61  57  88 S6        30.05S                  
$$

MSZ080>082-182100-
COASTAL MISSISSIPPI
  
CITY           SKY/WX    TMP DP  RH WIND       PRES   REMARKS
BAY ST LOUIS   MOSUNNY   68  61  77 S6        30.06F                  
BILOXI         NOT AVBL                                               
PASCAGOULA     FAIR      68  56  65 S5        30.04F                  
GULFPORT       PTSUNNY   66  58  75 VRB5      30.03F                  
$$

LAZ007>009-015>016-023>026-182100-
NORTHEAST LOUISIANA
  
CITY           SKY/WX    TMP DP  RH WIND       PRES   REMARKS
BASTROP        MOCLDY    58  57  97 SE3       29.97F                  
TALLULAH/VBURG FAIR      60  56  86 VRB5      30.00F                  
VIDALIA        CLOUDY    60  59  97 S9        30.00F                  
$$